Temp
-11 -11 -11 -11 -11 -12 -12 -12 -12 -12 -12 -12 -12 -12 -12 -12 -12 -12 -12 -13 -13 -13 -13 -13 -13 -13 -13 -13 -13 -13 -13 -14 -14 -14 -14 -14 -14 -14 -14 -13 -13 -13 -13
-11 -11 -12 -11 -11 -12 -12 -12 -13 -13 -13 -13 -13 -12 -12 -12 -13 -13 -13 -13 -13 -13 -13 -13 -13 -13 -13 -13 -13 -13 -13 -13 -13 -14 -14 -14 -14 -14 -13 -13 -13 -14 -14
-12 -12 -12 -12 -12 -12 -12 -13 -13 -13 -13 -13 -12 -13 -13 -13 -13 -13 -13 -13 -13 -13 -13 -13 -13 -13 -13 -13 -13 -13 -13 -13 -13 -13 -13 -14 -14 -14 -14 -14 -14 -14 -14
-12 -12 -12 -12 -12 -12 -12 -13 -13 -13 -13 -12 -12 -13 -13 -13 -13 -13 -13 -13 -13 -13 -13 -13 -13 -14 -14 -14 -14 -14 -14 -13 -13 -13 -13 -14 -14 -14 -14 -14 -14 -14 -14
-12 -12 -12 -12 -13 -13 -13 -13 -13 -12 -12 -12 -12 -13 -13 -13 -13 -13 -13 -13 -13 -13 -14 -14 -14 -14 -14 -14 -14 -14 -14 -14 -14 -14 -14 -14 -14 -14 -14 -14 -14 -14 -14
-12 -13 -13 -13 -13 -13 -13 -13 -12 -12 -12 -12 -13 -13 -13 -13 -13 -13 -13 -13 -13 -13 -14 -14 -14 -14 -14 -14 -14 -14 -14 -14 -14 -14 -14 -14 -14 -14 -14 -14 -15 -14 -15
-13 -13 -13 -13 -13 -13 -13 -12 -12 -12 -12 -13 -13 -13 -13 -13 -13 -13 -14 -14 -14 -14 -14 -14 -14 -14 -14 -14 -14 -14 -14 -14 -14 -14 -14 -14 -14 -14 -14 -14 -14 -14 -15
-13 -13 -13 -13 -13 -13 -13 -12 -12 -12 -13 -13 -13 -13 -13 -13 -13 -14 -14 -14 -14 -14 -14 -15 -14 -14 -14 -14 -14 -14 -14 -14 -14 -14 -14 -14 -14 -14 -14 -15 -14 -14 -14
-13 -14 -14 -14 -13 -13 -12 -12 -12 -13 -13 -13 -13 -13 -14 -14 -14 -14 -14 -14 -14 -15 -15 -14 -14 -14 -14 -14 -14 -14 -14 -14 -14 -14 -14 -14 -14 -14 -14 -15 -15 -15 -14
-14 -14 -14 -13 -13 -12 -13 -13 -13 -13 -13 -13 -13 -14 -14 -14 -14 -14 -15 -15 -15 -14 -14 -14 -14 -14 -14 -14 -14 -14 -14 -14 -14 -14 -14 -14 -14 -14 -14 -14 -15 -15 -15
-14 -13 -13 -13 -13 -13 -13 -13 -13 -13 -14 -14 -14 -14 -15 -14 -14 -14 -15 -15 -14 -15 -15 -15 -15 -15 -14 -14 -14 -14 -14 -14 -14 -14 -14 -14 -14 -14 -14 -14 -15 -15 -15
-13 -13 -13 -13 -14 -13 -13 -13 -14 -14 -14 -15 -15 -15 -15 -15 -15 -15 -15 -15 -15 -16 -16 -16 -15 -15 -15 -15 -15 -15 -15 -15 -15 -15 -15 -15 -15 -15 -14 -14 -14 -14 -15
-13 -14 -14 -14 -13 -13 -13 -14 -14 -14 -15 -15 -15 -15 -15 -15 -15 -15 -15 -16 -16 -16 -15 -15 -15 -15 -15 -16 -16 -16 -15 -15 -15 -15 -16 -15 -15 -15 -14 -14 -14 -14 -14
-13 -13 -13 -13 -13 -13 -14 -14 -14 -15 -15 -15 -16 -16 -16 -16 -15 -16 -15 -15 -15 -15 -15 -15 -15 -16 -16 -16 -16 -16 -16 -16 -16 -16 -16 -16 -16 -16 -15 -15 -15 -15 -15
-14 -13 -13 -13 -14 -14 -14 -14 -15 -15 -15 -15 -16 -16 -16 -16 -16 -15 -15 -15 -15 -15 -15 -16 -16 -16 -16 -16 -16 -16 -16 -16 -16 -16 -16 -16 -16 -16 -16 -16 -15 -15 -15
-13 -13 -14 -14 -14 -14 -14 -14 -15 -15 -15 -16 -16 -16 -16 -16 -16 -16 -15 -15 -16 -16 -16 -16 -16 -16 -16 -16 -16 -16 -16 -16 -16 -16 -16 -16 -16 -16 -16 -16 -16 -15 -15
-14 -14 -14 -15 -14 -15 -14 -15 -16 -15 -15 -16 -16 -16 -16 -16 -16 -15 -15 -16 -16 -16 -16 -16 -16 -16 -16 -16 -16 -16 -16 -16 -16 -15 -15 -15 -15 -15 -15 -15 -15 -16 -16
-15 -15 -15 -14 -14 -14 -14 -15 -15 -16 -16 -16 -16 -16 -16 -16 -16 -16 -16 -16 -17 -16 -16 -16 -16 -16 -16 -16 -16 -16 -16 -17 -16 -16 -16 -16 -15 -15 -15 -15 -15 -15 -15
-14 -14 -14 -14 -14 -14 -15 -15 -16 -17 -16 -17 -17 -17 -17 -17 -16 -17 -17 -16 -16 -17 -16 -17 -17 -17 -17 -17 -17 -17 -17 -17 -17 -17 -17 -16 -16 -16 -16 -16 -15 -15 -15
-14 -14 -14 -15 -14 -15 -15 -17 -17 -17 -16 -17 -17 -17 -17 -17 -17 -17 -17 -17 -17 -17 -17 -17 -18 -18 -17 -17 -17 -17 -18 -18 -18 -18 -18 -17 -17 -17 -16 -16 -16 -16 -16
-15 -15 -15 -15 -16 -16 -16 -16 -16 -16 -17 -17 -17 -17 -17 -17 -17 -17 -17 -17 -17 -17 -17 -18 -18 -18 -18 -18 -18 -18 -18 -19 -19 -19 -19 -18 -18 -18 -18 -17 -17 -17 -17
-15 -15 -15 -16 -16 -16 -16 -16 -16 -17 -17 -17 -18 -18 -17 -17 -17 -17 -17 -17 -17 -18 -18 -18 -18 -19 -19 -19 -19 -19 -19 -19 -20 -20 -20 -20 -20 -20 -20 -20 -19 -19 -18
-16 -16 -16 -16 -16 -17 -17 -17 -18 -18 -18 -18 -18 -17 -17 -17 -17 -18 -18 -19 -19 -19 -19 -19 -19 -19 -19 -19 -20 -20 -20 -20 -20 -20 -21 -21 -21 -21 -22 -22 -21 -21 -21
-17 -16 -17 -17 -17 -17 -17 -18 -18 -18 -18 -18 -18 -18 -18 -18 -19 -20 -20 -19 -19 -19 -19 -19 -19 -19 -19 -20 -20 -21 -21 -22 -22 -22 -22 -23 -23 -23 -23 -23 -23 -22 -22
-17 -17 -17 -16 -17 -17 -18 -18 -18 -18 -18 -19 -19 -20 -20 -19 -18 -18 -18 -18 -18 -18 -19 -19 -19 -20 -20 -21 -22 -23 -23 -24 -24 -25 -25 -25 -25 -25 -25 -25 -25 -24 -24
-16 -16 -17 -18 -18 -18 -18 -18 -19 -19 -19 -19 -19 -18 -18 -18 -18 -18 -18 -18 -18 -19 -19 -20 -21 -22 -22 -23 -24 -24 -25 -26 -27 -28 -28 -28 -28 -29 -28 -27 -27 -27 -27
Height
5854 5853 5852 5852 5852 5850 5849 5847 5845 5844 5843 5841 5840 5840 5840 5840 5839 5838 5838 5837 5835 5835 5834 5832 5831 5830 5829 5827 5826 5824 5823 5821 5820 5819 5819 5819 5817 5818 5817 5816 5814 5814 5813
5851 5851 5850 5850 5849 5848 5847 5845 5844 5842 5841 5840 5840 5840 5839 5839 5839 5839 5838 5837 5835 5834 5832 5832 5830 5828 5827 5826 5825 5824 5823 5821 5820 5819 5817 5815 5815 5813 5813 5812 5812 5811 5810
5846 5847 5848 5848 5847 5846 5844 5842 5841 5839 5840 5840 5840 5840 5840 5840 5840 5839 5838 5837 5835 5834 5832 5831 5829 5828 5825 5825 5824 5823 5821 5819 5819 5818 5816 5814 5812 5810 5810 5810 5808 5807 5807
5843 5843 5844 5844 5844 5842 5841 5840 5839 5839 5840 5840 5840 5840 5840 5839 5837 5837 5837 5835 5833 5832 5831 5828 5827 5826 5824 5822 5821 5820 5819 5817 5816 5815 5814 5812 5810 5809 5806 5805 5805 5805 5804
5840 5840 5841 5841 5840 5839 5839 5839 5839 5839 5839 5839 5838 5838 5837 5837 5836 5835 5834 5832 5831 5829 5828 5826 5824 5822 5821 5819 5818 5817 5816 5814 5813 5812 5812 5810 5808 5807 5806 5805 5803 5802 5800
5836 5837 5838 5838 5838 5838 5838 5839 5839 5839 5839 5838 5837 5837 5836 5835 5835 5834 5832 5831 5829 5828 5825 5823 5820 5818 5816 5815 5813 5812 5812 5811 5810 5807 5807 5807 5805 5804 5802 5801 5800 5800 5799
5833 5834 5835 5836 5837 5837 5837 5839 5838 5837 5837 5836 5835 5834 5834 5834 5833 5831 5829 5827 5826 5824 5822 5819 5816 5815 5813 5811 5810 5808 5807 5806 5806 5803 5802 5801 5800 5800 5800 5799 5797 5796 5794
5831 5831 5832 5834 5835 5836 5836 5837 5837 5836 5836 5835 5834 5834 5833 5831 5830 5829 5827 5824 5823 5819 5816 5814 5812 5811 5809 5807 5806 5804 5803 5802 5801 5798 5797 5796 5795 5794 5794 5795 5794 5793 5791
5829 5829 5832 5832 5835 5836 5836 5836 5836 5836 5834 5834 5833 5831 5828 5827 5826 5824 5823 5821 5818 5815 5812 5810 5809 5807 5805 5803 5801 5799 5797 5796 5795 5793 5791 5790 5789 5788 5788 5789 5790 5789 5788
5826 5828 5830 5832 5834 5834 5834 5835 5835 5833 5832 5831 5829 5827 5826 5823 5823 5820 5819 5816 5814 5810 5807 5805 5803 5801 5800 5797 5796 5793 5791 5790 5788 5787 5786 5784 5783 5783 5783 5782 5784 5784 5783
5827 5829 5831 5832 5832 5833 5834 5834 5832 5831 5830 5828 5826 5824 5822 5820 5819 5816 5814 5812 5809 5805 5802 5799 5797 5795 5792 5790 5789 5786 5785 5783 5781 5780 5779 5778 5777 5776 5776 5776 5776 5778 5778
5828 5830 5830 5831 5831 5831 5832 5831 5829 5827 5825 5824 5822 5820 5818 5816 5814 5812 5809 5807 5803 5800 5796 5793 5791 5790 5787 5784 5781 5778 5777 5777 5776 5773 5772 5772 5771 5770 5771 5770 5770 5770 5772
5826 5827 5827 5828 5829 5830 5829 5827 5826 5823 5821 5819 5818 5816 5813 5811 5809 5807 5804 5801 5798 5795 5791 5788 5785 5783 5782 5779 5775 5772 5770 5770 5769 5768 5766 5766 5766 5765 5765 5765 5764 5763 5763
5825 5825 5826 5827 5827 5827 5826 5824 5822 5820 5817 5815 5814 5811 5808 5805 5803 5800 5797 5794 5792 5789 5786 5782 5779 5776 5773 5771 5769 5766 5763 5763 5762 5762 5762 5760 5759 5759 5758 5758 5758 5757 5756
5822 5823 5824 5824 5823 5823 5822 5819 5816 5814 5812 5810 5809 5806 5802 5799 5796 5792 5790 5788 5785 5783 5779 5776 5772 5768 5765 5763 5761 5759 5757 5755 5754 5755 5754 5752 5751 5750 5750 5751 5750 5750 5749
5820 5819 5820 5820 5819 5817 5815 5813 5810 5807 5806 5805 5802 5799 5795 5791 5787 5785 5782 5780 5777 5775 5771 5767 5764 5761 5759 5756 5754 5751 5749 5747 5745 5744 5742 5742 5741 5740 5739 5739 5739 5739 5740
5819 5819 5819 5817 5815 5812 5810 5806 5806 5801 5798 5796 5795 5791 5787 5783 5780 5778 5775 5773 5770 5766 5762 5758 5755 5752 5749 5747 5745 5742 5739 5737 5735 5733 5731 5729 5728 5727 5727 5726 5727 5726 5727
5817 5817 5815 5812 5811 5804 5803 5801 5797 5796 5792 5787 5786 5784 5779 5777 5773 5771 5768 5764 5760 5756 5753 5749 5745 5741 5737 5735 5732 5728 5725 5723 5721 5719 5718 5716 5713 5712 5712 5711 5711 5711 5712
5813 5813 5811 5808 5805 5797 5794 5790 5790 5788 5785 5783 5778 5776 5772 5769 5765 5762 5759 5754 5750 5746 5742 5738 5733 5729 5726 5723 5719 5715 5710 5706 5704 5702 5700 5699 5697 5695 5693 5692 5693 5693 5694
5807 5806 5804 5801 5799 5795 5789 5787 5786 5782 5778 5774 5771 5767 5764 5759 5755 5751 5747 5743 5739 5733 5728 5723 5718 5714 5711 5707 5703 5699 5695 5689 5686 5682 5679 5677 5675 5674 5672 5671 5671 5672 5673
5802 5800 5798 5795 5792 5789 5786 5782 5778 5775 5771 5767 5763 5759 5754 5750 5746 5741 5737 5732 5726 5720 5714 5708 5702 5697 5692 5688 5683 5680 5674 5668 5663 5661 5656 5653 5651 5648 5647 5646 5646 5647 5648
5798 5795 5792 5789 5786 5782 5779 5775 5771 5767 5763 5758 5753 5750 5746 5741 5737 5732 5726 5719 5712 5705 5698 5692 5684 5677 5670 5664 5659 5654 5650 5648 5643 5638 5633 5629 5627 5624 5620 5618 5618 5620 5622
5792 5790 5787 5784 5780 5776 5771 5765 5760 5756 5752 5747 5743 5739 5735 5730 5725 5718 5710 5702 5695 5688 5682 5674 5667 5661 5653 5645 5636 5627 5619 5616 5609 5609 5605 5600 5596 5595 5592 5589 5589 5590 5592
5785 5782 5779 5776 5772 5767 5761 5755 5750 5746 5742 5738 5734 5729 5724 5718 5712 5705 5698 5690 5682 5674 5667 5658 5648 5639 5629 5620 5611 5602 5592 5583 5576 5576 5575 5571 5568 5563 5559 5556 5555 5556 5557
5779 5777 5773 5767 5762 5757 5752 5747 5742 5739 5734 5729 5725 5719 5714 5708 5700 5691 5682 5674 5665 5655 5644 5634 5624 5615 5605 5596 5587 5578 5569 5559 5546 5534 5531 5533 5529 5528 5526 5520 5518 5518 5518
5770 5767 5763 5759 5754 5749 5744 5740 5736 5731 5726 5721 5715 5709 5701 5691 5682 5673 5663 5653 5642 5632 5622 5613 5601 5588 5578 5569 5557 5545 5535 5527 5520 5508 5499 5495 5491 5498 5489 5486 5482 5482 5483
Wind_Speed
15 16 20 22 24 24 26 25 20 13 9 7 5 5 8 8 7 7 8 9 10 11 12 12 11 12 13 13 14 15 14 13 13 14 16 18 17 17 18 19 14 17 19
18 19 20 24 25 27 26 19 14 10 8 6 0 3 3 4 5 6 7 8 9 10 12 14 14 13 14 14 13 11 12 12 12 11 14 16 19 20 20 20 19 15 16
18 21 25 27 27 24 22 16 12 10 9 4 3 2 1 3 5 6 8 9 11 12 13 14 15 17 17 19 17 15 15 13 13 12 13 14 16 17 18 18 16 16 15
20 24 25 25 23 21 18 13 12 10 7 6 6 5 6 8 9 11 12 13 14 16 17 18 19 20 21 21 21 18 17 17 17 18 17 17 17 16 17 18 17 16 15
25 24 23 24 21 17 12 11 8 7 8 8 8 9 11 13 13 15 17 18 19 20 21 23 24 24 25 26 25 23 20 20 22 22 21 21 21 19 16 16 14 19 16
25 23 16 16 15 10 10 8 7 7 8 9 11 12 15 16 18 19 21 22 22 24 25 27 29 29 29 29 29 27 25 25 28 29 27 25 24 23 21 20 17 17 17
22 19 18 15 10 9 7 7 7 7 10 12 13 14 17 18 20 21 22 23 25 27 29 29 31 31 30 28 28 26 25 23 25 28 30 28 28 27 24 22 21 19 19
19 18 15 11 8 9 8 8 9 10 12 13 15 17 19 21 22 24 26 27 29 30 30 29 27 25 26 25 25 25 26 25 25 26 27 27 27 29 28 26 25 22 21
14 12 10 7 10 9 8 10 12 14 14 16 18 20 21 22 24 28 30 30 31 29 29 28 26 26 27 27 29 30 30 30 29 29 27 27 27 28 29 28 28 27 26
9 8 8 10 10 9 11 13 14 16 17 19 20 21 23 25 29 31 31 30 29 29 31 31 30 30 30 30 31 32 33 32 29 28 28 27 26 28 28 29 28 28 29
7 6 6 7 8 10 12 15 17 18 19 20 22 23 26 28 30 31 31 30 29 30 31 31 31 32 33 34 36 35 32 31 29 29 27 25 25 26 28 30 31 28 29
5 4 6 8 10 12 14 16 17 18 18 18 21 22 26 27 30 33 31 31 31 32 32 33 35 35 34 34 33 32 32 30 27 28 27 24 22 22 25 28 30 31 31
3 5 9 10 12 13 15 19 20 21 23 25 26 29 29 32 33 32 35 34 32 35 37 36 35 34 31 28 27 28 29 30 28 26 28 27 27 25 24 26 27 29 29
6 7 8 11 15 18 20 20 23 23 23 25 26 31 31 31 31 33 35 35 35 41 39 34 32 32 31 29 27 28 27 28 29 30 29 30 31 30 29 29 29 29 31
7 9 13 17 20 21 20 19 16 20 21 24 25 29 31 32 35 37 38 36 37 41 36 32 32 33 33 32 31 31 32 32 33 32 33 34 35 36 36 36 36 35 34
10 14 17 20 20 22 22 24 26 24 20 22 26 29 31 32 33 37 35 41 42 41 39 37 36 36 38 39 39 38 38 39 39 39 39 39 40 40 41 41 41 42 43
13 15 19 22 23 25 24 23 23 27 19 35 33 34 31 33 36 37 40 44 45 41 40 38 38 39 40 41 42 42 41 43 43 45 47 48 48 48 48 48 48 49 47
15 17 21 19 21 19 17 21 31 29 37 37 37 32 26 36 36 43 46 42 40 40 40 41 42 44 45 47 48 49 50 51 52 53 53 55 57 57 56 55 55 55 55
20 20 20 16 21 28 27 31 31 39 35 38 32 34 35 42 44 48 43 42 43 45 47 50 51 52 54 55 55 56 59 61 62 63 63 64 64 64 65 64 64 64 62
20 22 20 21 23 28 36 39 38 40 38 33 38 39 44 50 51 49 47 48 51 54 55 57 59 60 61 61 63 65 67 69 71 72 73 74 72 71 72 72 71 71 70
21 23 27 28 29 37 42 49 49 46 41 44 45 48 51 50 47 48 50 55 58 61 62 64 67 70 71 72 74 75 76 77 77 78 78 78 78 79 78 77 77 77 76
26 30 29 35 41 44 47 49 49 49 48 48 46 45 45 46 47 51 56 61 64 66 68 71 75 78 80 81 82 83 83 81 80 79 79 79 79 80 81 81 81 80 80
30 36 36 39 41 42 47 48 43 41 42 42 43 44 45 48 53 59 64 68 70 71 73 77 80 81 84 86 87 89 90 90 91 89 88 87 86 84 83 83 83 84 83
32 34 37 38 44 46 46 42 41 41 42 42 44 46 50 55 60 63 65 67 71 76 79 83 84 86 91 92 94 94 94 96 95 93 91 90 89 90 92 91 91 90 91
34 37 34 49 48 46 44 44 42 41 43 47 50 53 56 59 63 65 69 74 79 84 86 88 89 93 96 96 93 93 93 93 94 95 96 93 94 93 94 96 98 99 99
37 44 48 41 42 43 41 40 42 45 47 49 53 57 62 65 68 73 78 83 88 90 91 93 96 96 96 95 95 95 92 89 86 85 84 85 81 74 80 82 88 92 96
Wind_Direction
304 290 282 282 286 299 316 311 308 307 319 326 357 58 64 56 41 31 20 9 4 0 355 351 348 350 349 355 0 3 354 344 332 319 301 296 293 291 285 275 277 284 282
290 288 285 289 297 305 310 303 300 299 307 318 59 104 65 28 15 3 351 341 336 337 332 329 327 326 327 328 331 340 338 346 345 337 320 309 302 293 287 282 283 284 274
297 294 286 289 298 305 305 297 285 294 294 251 196 214 297 328 317 318 318 316 317 319 318 314 316 315 315 313 314 316 313 317 316 320 323 320 314 307 300 285 281 292 278
295 296 290 291 301 300 295 281 283 285 259 204 218 239 266 279 288 294 295 299 304 304 302 306 310 311 311 308 308 307 304 303 305 306 306 308 311 314 315 308 298 284 281
296 295 288 295 291 288 282 282 275 251 220 211 231 250 265 276 287 285 289 298 301 300 303 307 308 306 305 304 302 301 299 296 297 299 297 297 297 297 305 306 305 301 276
293 291 292 285 279 271 269 259 233 215 217 229 247 261 274 281 283 289 294 297 300 302 304 304 305 305 301 300 298 296 294 293 293 294 293 289 291 294 295 299 301 298 285
284 280 276 271 261 251 233 214 214 222 235 246 258 268 276 284 290 294 295 298 298 301 302 304 305 305 303 300 296 296 298 298 296 294 293 289 287 286 288 286 290 296 298
272 264 259 251 239 220 215 215 231 239 249 264 276 281 287 290 294 294 295 298 300 301 303 304 304 302 301 301 299 297 297 298 294 292 295 295 287 284 284 285 285 283 288
253 246 245 243 221 223 230 237 246 259 272 280 282 285 289 290 291 294 296 298 300 300 302 301 302 301 300 300 298 296 295 294 294 289 286 287 287 284 282 279 278 280 279
236 237 233 212 218 233 246 258 270 274 279 280 284 291 293 293 294 295 295 296 298 299 299 301 300 297 294 294 295 298 297 294 291 289 284 282 279 277 279 279 274 272 274
231 222 215 228 243 262 280 281 283 285 286 291 294 296 296 296 297 297 297 298 302 307 304 304 302 302 301 301 302 301 297 294 293 290 283 279 272 270 273 273 274 272 271
195 216 246 263 287 293 285 282 283 287 289 297 294 295 295 299 301 300 306 307 308 309 304 300 299 297 296 296 299 301 301 298 297 292 285 276 273 271 271 272 272 273 270
241 270 275 287 285 279 282 283 288 288 290 297 296 288 294 302 303 303 304 297 295 308 302 300 302 300 297 297 296 297 295 295 294 286 285 283 281 280 275 272 272 272 271
272 281 299 298 283 276 278 288 285 287 292 300 294 304 309 305 301 298 298 299 287 302 302 300 300 301 304 305 300 298 300 299 295 293 285 280 283 282 280 277 274 271 272
306 302 279 273 276 281 282 285 281 286 297 301 303 308 304 299 291 289 292 298 299 299 302 299 299 299 300 300 298 297 296 295 294 291 288 286 284 283 282 280 276 272 267
288 284 293 287 288 287 289 282 276 274 291 302 309 303 297 293 296 288 289 299 303 304 301 298 297 298 300 300 300 299 298 295 291 289 287 284 283 282 282 281 279 277 275
274 279 288 291 293 290 288 269 271 300 280 318 311 308 300 295 291 296 290 293 295 296 293 294 298 298 298 297 296 294 292 290 287 285 285 285 284 281 278 278 276 275 273
271 277 283 291 290 272 308 293 301 327 306 318 312 300 292 292 286 295 296 299 296 295 297 298 298 298 297 296 296 295 294 292 288 285 282 279 278 278 277 276 274 272 271
264 274 289 282 289 308 305 321 314 316 312 310 301 294 290 295 294 300 299 297 298 298 299 300 300 299 297 295 293 293 294 294 293 291 288 284 281 278 275 273 271 270 268
297 297 301 307 306 303 308 316 313 311 306 301 297 293 300 302 299 299 301 301 301 302 304 305 303 300 297 297 297 296 295 293 293 292 290 288 285 282 279 276 272 269 266
303 315 310 303 303 308 309 313 314 307 303 300 300 295 298 300 301 300 302 304 305 305 305 304 304 303 302 301 298 296 294 292 291 291 289 287 285 283 279 276 273 270 267
307 309 303 306 306 305 307 306 303 300 297 295 296 298 298 299 301 303 303 304 305 305 305 304 304 304 302 300 298 295 292 290 289 287 286 284 282 279 277 274 272 269 267
306 306 307 302 300 302 304 304 304 300 298 298 297 297 298 302 305 307 307 307 305 304 304 303 302 301 300 299 299 299 298 295 292 290 289 287 283 280 275 270 268 265 263
299 298 300 303 307 304 304 303 300 300 300 299 299 301 304 307 307 303 301 301 302 302 302 301 301 302 304 303 301 300 298 296 292 290 287 283 279 276 274 271 267 262 260
301 297 292 307 309 308 303 301 300 300 303 304 303 301 298 298 300 302 304 306 306 306 306 305 305 303 301 301 300 298 294 292 290 286 284 280 278 275 271 267 266 264 260
285 303 309 309 303 304 301 301 301 300 298 296 294 298 302 305 308 309 309 310 311 309 306 305 305 303 302 301 299 298 295 292 288 287 288 287 285 281 279 273 267 264 262